Time,TemperatureF,DewpointF,PressureIn,WindDirection,WindDirectionDegrees,WindSpeedMPH,WindSpeedGustMPH,Humidity,HourlyPrecipIn,Conditions,Clouds,dailyrainin,SoftwareType,DateUTC
2015-09-02 00:05:00,73.0,64.3,30.00,NW,315,0.0,0.0,74,0.00,SKC,,0.00,WeatherDisplay:10.37,2015-09-02 04:05:00,
2015-09-02 00:10:00,73.0,64.3,30.01,NW,315,0.0,0.0,74,0.00,SKC,,0.00,WeatherDisplay:10.37,2015-09-02 04:10:00,
2015-09-02 00:15:00,72.9,63.7,30.01,NW,315,0.0,0.0,73,0.00,SKC,,0.00,WeatherDisplay:10.37,2015-09-02 04:15:00,
2015-09-02 00:20:00,72.7,63.9,30.00,NW,315,0.0,0.0,74,0.00,SKC,,0.00,WeatherDisplay:10.37,2015-09-02 04:20:00,
2015-09-02 00:25:00,72.7,63.9,30.01,NW,315,0.0,0.0,74,0.00,SKC,,0.00,WeatherDisplay:10.37,2015-09-02 04:25:00,
2015-09-02 00:30:00,72.5,63.7,30.01,NW,315,0.0,0.0,74,0.00,SKC,,0.00,WeatherDisplay:10.37,2015-09-02 04:30:00,
2015-09-02 00:35:00,72.5,63.7,30.01,NW,315,0.0,0.0,74,0.00,SKC,,0.00,WeatherDisplay:10.37,2015-09-02 04:35:00,
2015-09-02 00:40:00,72.3,63.9,30.01,NW,315,0.0,0.0,75,0.00,SKC,,0.00,WeatherDisplay:10.37,2015-09-02 04:40:00,
2015-09-02 00:45:00,72.3,63.9,30.01,NW,315,0.0,0.0,75,0.00,SKC,,0.00,WeatherDisplay:10.37,2015-09-02 04:45:00,
2015-09-02 00:50:00,72.1,63.8,30.01,NW,315,0.0,0.0,75,0.00,SKC,,0.00,WeatherDisplay:10.37,2015-09-02 04:50:00,
2015-09-02 00:55:00,72.1,63.8,30.01,NW,315,0.0,0.0,75,0.00,SKC,,0.00,WeatherDisplay:10.37,2015-09-02 04:55:00,
2015-09-02 01:00:00,72.1,63.8,30.01,NW,315,0.0,0.0,75,0.00,SKC,,0.00,WeatherDisplay:10.37,2015-09-02 05:00:00,
2015-09-02 01:05:00,72.1,63.8,30.01,NW,315,0.0,0.0,75,0.00,SKC,,0.00,WeatherDisplay:10.37,2015-09-02 05:05:00,
2015-09-02 01:10:00,72.0,63.6,30.01,NW,315,0.0,0.0,75,0.00,SKC,,0.00,WeatherDisplay:10.37,2015-09-02 05:10:00,
2015-09-02 01:15:00,71.8,63.4,30.01,NW,315,0.0,0.0,75,0.00,SKC,,0.00,WeatherDisplay:10.37,2015-09-02 05:15:00,
2015-09-02 01:20:00,71.8,63.8,30.01,NW,315,0.0,0.0,76,0.00,SKC,,0.00,WeatherDisplay:10.37,2015-09-02 05:20:00,
2015-09-02 01:25:00,71.4,63.5,30.01,NW,315,0.0,0.0,76,0.00,SKC,,0.00,WeatherDisplay:10.37,2015-09-02 05:25:00,
2015-09-02 01:30:00,71.2,63.3,30.01,NW,315,0.0,0.0,76,0.00,SKC,,0.00,WeatherDisplay:10.37,2015-09-02 05:30:00,
2015-09-02 01:35:00,71.2,63.3,30.01,NW,315,0.0,0.0,76,0.00,SKC,,0.00,WeatherDisplay:10.37,2015-09-02 05:35:00,
2015-09-02 01:40:00,70.9,63.3,30.01,NW,315,0.0,0.0,77,0.00,SKC,,0.00,WeatherDisplay:10.37,2015-09-02 05:40:00,
2015-09-02 01:45:00,70.9,63.3,30.01,NW,315,0.0,0.0,77,0.00,SKC,,0.00,WeatherDisplay:10.37,2015-09-02 05:45:00,
2015-09-02 01:50:00,70.9,63.3,30.01,NW,315,0.0,0.0,77,0.00,SKC,,0.00,WeatherDisplay:10.37,2015-09-02 05:50:00,
2015-09-02 01:55:00,70.7,63.1,30.01,NW,315,0.0,0.0,77,0.00,SKC,,0.00,WeatherDisplay:10.37,2015-09-02 05:55:00,
2015-09-02 02:00:00,70.5,63.3,30.00,NW,315,0.0,0.0,78,0.00,SKC,,0.00,WeatherDisplay:10.37,2015-09-02 06:00:00,
2015-09-02 02:05:00,70.3,63.2,30.00,NW,315,0.0,0.0,78,0.00,SKC,,0.00,WeatherDisplay:10.37,2015-09-02 06:05:00,
2015-09-02 02:10:00,70.0,62.8,30.00,NW,315,0.0,0.0,78,0.00,SKC,,0.00,WeatherDisplay:10.37,2015-09-02 06:10:00,
2015-09-02 02:15:00,70.0,63.2,30.00,NW,315,0.0,0.0,79,0.00,SKC,,0.00,WeatherDisplay:10.37,2015-09-02 06:15:00,
2015-09-02 02:20:00,69.6,62.8,30.00,NW,315,0.0,0.0,79,0.00,SKC,,0.00,WeatherDisplay:10.37,2015-09-02 06:20:00,
2015-09-02 02:25:00,69.6,62.8,30.00,NW,315,0.0,0.0,79,0.00,SKC,,0.00,WeatherDisplay:10.37,2015-09-02 06:25:00,
2015-09-02 02:30:00,69.4,63.0,30.00,NW,315,0.0,0.0,80,0.00,SKC,,0.00,WeatherDisplay:10.37,2015-09-02 06:30:00,
2015-09-02 02:35:00,69.4,63.0,30.00,NW,315,0.0,0.0,80,0.00,SKC,,0.00,WeatherDisplay:10.37,2015-09-02 06:35:00,
2015-09-02 02:40:00,69.1,62.6,30.00,NW,315,0.0,0.0,80,0.00,SKC,,0.00,WeatherDisplay:10.37,2015-09-02 06:40:00,
2015-09-02 02:45:00,69.1,62.6,29.99,NW,315,0.0,0.0,80,0.00,SKC,,0.00,WeatherDisplay:10.37,2015-09-02 06:45:00,
2015-09-02 02:50:00,69.1,63.0,30.00,NW,315,0.0,0.0,81,0.00,SKC,,0.00,WeatherDisplay:10.37,2015-09-02 06:50:00,
2015-09-02 02:55:00,68.9,62.8,29.99,NW,315,0.0,0.0,81,0.00,SKC,,0.00,WeatherDisplay:10.37,2015-09-02 06:55:00,
2015-09-02 03:00:00,68.7,62.7,29.99,NW,315,0.0,0.0,81,0.00,SKC,,0.00,WeatherDisplay:10.37,2015-09-02 07:00:00,
2015-09-02 03:05:00,68.7,62.7,29.99,NW,315,0.0,0.0,81,0.00,SKC,,0.00,WeatherDisplay:10.37,2015-09-02 07:05:00,
2015-09-02 03:10:00,68.7,62.7,29.99,NW,315,0.0,0.0,81,0.00,SKC,,0.00,WeatherDisplay:10.37,2015-09-02 07:10:00,
2015-09-02 03:15:00,68.5,62.5,29.99,NW,315,0.0,0.0,81,0.00,SKC,,0.00,WeatherDisplay:10.37,2015-09-02 07:15:00,
2015-09-02 03:20:00,68.5,62.5,29.99,NW,315,0.0,0.0,81,0.00,SKC,,0.00,WeatherDisplay:10.37,2015-09-02 07:20:00,
2015-09-02 03:25:00,68.4,62.6,29.99,NW,316,0.0,0.0,82,0.00,SKC,,0.00,WeatherDisplay:10.37,2015-09-02 07:25:00,
2015-09-02 03:30:00,68.4,62.6,29.99,NW,315,0.0,0.0,82,0.00,SKC,,0.00,WeatherDisplay:10.37,2015-09-02 07:30:00,
2015-09-02 03:35:00,68.4,62.6,29.99,NW,315,0.0,0.0,82,0.00,SKC,,0.00,WeatherDisplay:10.37,2015-09-02 07:35:00,
2015-09-02 03:40:00,68.2,62.5,29.99,NW,315,0.0,0.0,82,0.00,SKC,,0.00,WeatherDisplay:10.37,2015-09-02 07:40:00,
2015-09-02 03:45:00,68.2,62.5,29.99,NW,315,0.0,0.0,82,0.00,SKC,,0.00,WeatherDisplay:10.37,2015-09-02 07:45:00,
2015-09-02 03:50:00,68.2,62.5,29.99,NW,315,0.0,0.0,82,0.00,SKC,,0.00,WeatherDisplay:10.37,2015-09-02 07:50:00,
2015-09-02 03:55:00,68.0,62.6,29.99,NW,315,0.0,0.0,83,0.00,SKC,,0.00,WeatherDisplay:10.37,2015-09-02 07:55:00,
2015-09-02 04:00:00,67.8,62.5,29.98,NW,315,0.0,0.0,83,0.00,SKC,,0.00,WeatherDisplay:10.37,2015-09-02 08:00:00,
2015-09-02 04:05:00,67.8,62.5,29.99,NW,315,0.0,0.0,83,0.00,SKC,,0.00,WeatherDisplay:10.37,2015-09-02 08:05:00,
2015-09-02 04:10:00,67.8,62.5,29.99,NW,315,0.0,0.0,83,0.00,SKC,,0.00,WeatherDisplay:10.37,2015-09-02 08:10:00,
2015-09-02 04:15:00,67.8,62.5,29.99,NW,315,0.0,0.0,83,0.00,SKC,,0.00,WeatherDisplay:10.37,2015-09-02 08:15:00,
2015-09-02 04:20:00,67.8,62.5,29.98,NW,315,0.0,0.0,83,0.00,SKC,,0.00,WeatherDisplay:10.37,2015-09-02 08:20:00,
2015-09-02 04:25:00,67.6,62.6,29.98,NW,315,0.0,0.0,84,0.00,SKC,,0.00,WeatherDisplay:10.37,2015-09-02 08:25:00,
2015-09-02 04:30:00,67.6,62.6,29.99,NW,315,0.0,0.0,84,0.00,SKC,,0.00,WeatherDisplay:10.37,2015-09-02 08:30:00,
2015-09-02 04:35:00,67.6,62.6,29.98,NW,315,0.0,0.0,84,0.00,SKC,,0.00,WeatherDisplay:10.37,2015-09-02 08:35:00,
2015-09-02 04:40:00,67.6,62.6,29.99,NW,315,0.0,0.0,84,0.00,SKC,,0.00,WeatherDisplay:10.37,2015-09-02 08:40:00,
2015-09-02 04:45:00,67.6,62.6,29.99,NW,315,0.0,0.0,84,0.00,SKC,,0.00,WeatherDisplay:10.37,2015-09-02 08:45:00,
2015-09-02 04:50:00,67.6,62.6,29.99,NW,315,0.0,0.0,84,0.00,SKC,,0.00,WeatherDisplay:10.37,2015-09-02 08:50:00,
2015-09-02 04:55:00,67.6,62.6,29.99,NW,315,0.0,0.0,84,0.00,SKC,,0.00,WeatherDisplay:10.37,2015-09-02 08:55:00,
2015-09-02 05:00:00,67.6,62.6,29.99,NW,315,0.0,0.0,84,0.00,SKC,,0.00,WeatherDisplay:10.37,2015-09-02 09:00:00,
2015-09-02 05:05:00,67.5,62.5,29.99,NW,315,0.0,0.0,84,0.00,SKC,,0.00,WeatherDisplay:10.37,2015-09-02 09:05:00,
2015-09-02 05:10:00,67.3,62.3,29.99,NW,315,0.0,0.0,84,0.00,SKC,,0.00,WeatherDisplay:10.37,2015-09-02 09:10:00,
2015-09-02 05:15:00,67.3,62.6,29.99,NW,315,0.0,0.0,85,0.00,SKC,,0.00,WeatherDisplay:10.37,2015-09-02 09:15:00,
2015-09-02 05:20:00,67.1,62.1,29.99,NW,315,0.0,0.0,84,0.00,SKC,,0.00,WeatherDisplay:10.37,2015-09-02 09:20:00,
2015-09-02 05:25:00,67.1,62.1,29.99,NW,315,0.0,0.0,84,0.00,SKC,,0.00,WeatherDisplay:10.37,2015-09-02 09:25:00,
2015-09-02 05:30:00,66.9,62.3,29.99,NW,315,0.0,0.0,85,0.00,SKC,,0.00,WeatherDisplay:10.37,2015-09-02 09:30:00,
2015-09-02 05:35:00,66.9,62.3,29.99,NW,315,0.0,0.0,85,0.00,SKC,,0.00,WeatherDisplay:10.37,2015-09-02 09:35:00,
2015-09-02 05:40:00,66.9,62.3,29.99,NW,315,0.0,0.0,85,0.00,SKC,,0.00,WeatherDisplay:10.37,2015-09-02 09:40:00,
2015-09-02 05:45:00,66.7,62.1,29.99,NW,315,0.0,0.0,85,0.00,FEW,,0.00,WeatherDisplay:10.37,2015-09-02 09:45:00,
2015-09-02 05:50:00,66.7,62.1,29.99,NW,315,0.0,0.0,85,0.00,FEW,,0.00,WeatherDisplay:10.37,2015-09-02 09:50:00,
2015-09-02 05:55:00,66.7,62.4,29.99,NW,315,0.0,0.0,86,0.00,FEW,,0.00,WeatherDisplay:10.37,2015-09-02 09:55:00,
2015-09-02 06:00:00,66.7,62.4,29.99,NW,315,0.0,0.0,86,0.00,FEW,,0.00,WeatherDisplay:10.37,2015-09-02 10:00:00,
2015-09-02 06:05:00,66.7,62.4,29.99,NW,315,0.0,0.0,86,0.00,FEW,,0.00,WeatherDisplay:10.37,2015-09-02 10:05:00,
2015-09-02 06:10:00,66.6,62.2,29.99,NW,315,0.0,0.0,86,0.00,FEW,,0.00,WeatherDisplay:10.37,2015-09-02 10:10:00,
2015-09-02 06:15:00,66.6,62.2,29.99,NW,315,0.0,0.0,86,0.00,FEW,,0.00,WeatherDisplay:10.37,2015-09-02 10:15:00,
2015-09-02 06:20:00,66.4,62.1,29.99,NW,315,0.0,0.0,86,0.00,FEW,,0.00,WeatherDisplay:10.37,2015-09-02 10:20:00,
2015-09-02 06:25:00,66.4,62.1,29.99,NW,315,0.0,0.0,86,0.00,FEW,,0.00,WeatherDisplay:10.37,2015-09-02 10:25:00,
2015-09-02 06:30:00,66.4,62.1,29.99,NW,315,0.0,0.0,86,0.00,FEW,,0.00,WeatherDisplay:10.37,2015-09-02 10:30:00,
2015-09-02 06:35:00,66.2,61.9,29.99,NW,315,0.0,0.0,86,0.00,FEW,,0.00,WeatherDisplay:10.37,2015-09-02 10:35:00,
2015-09-02 06:40:00,66.2,61.9,29.99,NW,315,0.0,0.0,86,0.00,FEW,,0.00,WeatherDisplay:10.37,2015-09-02 10:40:00,
2015-09-02 06:45:00,66.2,62.2,29.99,NW,315,0.0,0.0,87,0.00,FEW,,0.00,WeatherDisplay:10.37,2015-09-02 10:45:00,
2015-09-02 06:50:00,66.2,62.2,29.99,NW,315,0.0,0.0,87,0.00,FEW,,0.00,WeatherDisplay:10.37,2015-09-02 10:50:00,
2015-09-02 06:55:00,66.2,62.2,29.99,NW,315,0.0,0.0,87,0.00,FEW,,0.00,WeatherDisplay:10.37,2015-09-02 10:55:00,
2015-09-02 07:00:00,66.4,62.4,29.99,NW,315,0.0,0.0,87,0.00,FEW,,0.00,WeatherDisplay:10.37,2015-09-02 11:00:00,
2015-09-02 07:05:00,66.4,62.4,29.99,NW,315,0.0,0.0,87,0.00,FEW,,0.00,WeatherDisplay:10.37,2015-09-02 11:05:00,
2015-09-02 07:10:00,66.4,62.4,29.99,NW,315,0.0,0.0,87,0.00,FEW,,0.00,WeatherDisplay:10.37,2015-09-02 11:10:00,
2015-09-02 07:15:00,66.6,62.6,29.99,NW,315,0.0,0.0,87,0.00,FEW,,0.00,WeatherDisplay:10.37,2015-09-02 11:15:00,
2015-09-02 07:20:00,66.7,62.7,29.99,NW,315,0.0,0.0,87,0.00,FEW,,0.00,WeatherDisplay:10.37,2015-09-02 11:20:00,
2015-09-02 07:25:00,66.9,62.9,29.99,NW,315,0.0,0.0,87,0.00,FEW,,0.00,WeatherDisplay:10.37,2015-09-02 11:25:00,
2015-09-02 07:30:00,66.9,62.9,29.99,NW,315,0.0,0.0,87,0.00,FEW,,0.00,WeatherDisplay:10.37,2015-09-02 11:30:00,
2015-09-02 07:35:00,67.3,63.3,29.99,NW,315,0.0,0.0,87,0.00,FEW,,0.00,WeatherDisplay:10.37,2015-09-02 11:35:00,
2015-09-02 07:40:00,67.3,63.3,30.00,NW,315,0.0,0.0,87,0.00,FEW,,0.00,WeatherDisplay:10.37,2015-09-02 11:40:00,
2015-09-02 07:45:00,67.6,63.6,30.00,NW,315,0.0,0.0,87,0.00,SCT,,0.00,WeatherDisplay:10.37,2015-09-02 11:45:00,
2015-09-02 07:50:00,67.6,63.6,29.99,NW,315,0.0,0.0,87,0.00,SCT,,0.00,WeatherDisplay:10.37,2015-09-02 11:50:00,
2015-09-02 07:55:00,67.8,63.8,29.99,NW,315,0.0,0.0,87,0.00,SCT,,0.00,WeatherDisplay:10.37,2015-09-02 11:55:00,
2015-09-02 08:00:00,67.8,63.8,30.00,NW,315,0.0,0.0,87,0.00,SCT,,0.00,WeatherDisplay:10.37,2015-09-02 12:00:00,
2015-09-02 08:05:00,68.2,64.2,30.00,NW,315,0.0,0.0,87,0.00,SCT,,0.00,WeatherDisplay:10.37,2015-09-02 12:05:00,
2015-09-02 08:10:00,68.2,64.2,30.00,NW,315,0.0,0.0,87,0.00,SCT,,0.00,WeatherDisplay:10.37,2015-09-02 12:10:00,
2015-09-02 08:15:00,68.5,64.5,30.00,NW,315,0.0,0.0,87,0.00,SCT,,0.00,WeatherDisplay:10.37,2015-09-02 12:15:00,
2015-09-02 08:20:00,68.7,64.7,30.00,NW,315,0.0,0.0,87,0.00,SCT,,0.00,WeatherDisplay:10.37,2015-09-02 12:20:00,
2015-09-02 08:25:00,68.9,64.9,30.00,NW,315,0.0,0.0,87,0.00,SCT,,0.00,WeatherDisplay:10.37,2015-09-02 12:25:00,
2015-09-02 08:30:00,69.1,64.7,30.00,NW,315,0.0,0.0,86,0.00,SCT,,0.00,WeatherDisplay:10.37,2015-09-02 12:30:00,
2015-09-02 08:35:00,69.4,65.1,30.00,NW,315,0.0,0.0,86,0.00,SCT,,0.00,WeatherDisplay:10.37,2015-09-02 12:35:00,
2015-09-02 08:40:00,69.6,65.2,30.00,NW,315,0.0,0.0,86,0.00,SCT,,0.00,WeatherDisplay:10.37,2015-09-02 12:40:00,
2015-09-02 08:45:00,70.0,65.6,30.00,NW,315,0.0,0.0,86,0.00,FEW,,0.00,WeatherDisplay:10.37,2015-09-02 12:45:00,
2015-09-02 08:50:00,70.3,66.0,30.00,NW,315,0.0,0.0,86,0.00,FEW,,0.00,WeatherDisplay:10.37,2015-09-02 12:50:00,
2015-09-02 08:55:00,70.7,66.3,30.00,NW,315,0.0,0.0,86,0.00,FEW,,0.00,WeatherDisplay:10.37,2015-09-02 12:55:00,
2015-09-02 09:00:00,71.2,66.8,30.00,NW,315,0.0,0.0,86,0.00,FEW,,0.00,WeatherDisplay:10.37,2015-09-02 13:00:00,
2015-09-02 09:05:00,71.8,67.4,29.99,NW,315,0.0,0.0,86,0.00,FEW,,0.00,WeatherDisplay:10.37,2015-09-02 13:05:00,
2015-09-02 09:10:00,72.1,67.7,29.99,NW,315,0.0,0.0,86,0.00,FEW,,0.00,WeatherDisplay:10.37,2015-09-02 13:10:00,
2015-09-02 09:15:00,72.7,67.9,29.99,NW,315,0.0,0.0,85,0.00,FEW,,0.00,WeatherDisplay:10.37,2015-09-02 13:15:00,
2015-09-02 09:20:00,73.0,68.3,29.99,NW,315,0.0,0.0,85,0.00,FEW,,0.00,WeatherDisplay:10.37,2015-09-02 13:20:00,
2015-09-02 09:25:00,73.4,68.6,29.99,NW,315,0.0,0.0,85,0.00,FEW,,0.00,WeatherDisplay:10.37,2015-09-02 13:25:00,
2015-09-02 09:30:00,73.9,69.1,29.99,NW,315,0.0,0.0,85,0.00,FEW,,0.00,WeatherDisplay:10.37,2015-09-02 13:30:00,
2015-09-02 09:35:00,74.3,69.1,29.99,NW,315,0.0,0.0,84,0.00,FEW,,0.00,WeatherDisplay:10.37,2015-09-02 13:35:00,
2015-09-02 09:40:00,74.8,69.7,29.99,NW,315,0.0,0.0,84,0.00,FEW,,0.00,WeatherDisplay:10.37,2015-09-02 13:40:00,
2015-09-02 09:41:00,74.8,69.3,29.98,NW,315,0.0,0.0,83,0.00,FEW,,0.00,WeatherDisplay:10.37,2015-09-02 13:41:00,
2015-09-02 09:42:00,75.0,69.5,29.98,NW,315,0.0,0.0,83,0.00,FEW,,0.00,WeatherDisplay:10.37,2015-09-02 13:42:00,
2015-09-02 09:47:00,75.4,69.9,29.98,NW,315,0.0,0.0,83,0.00,FEW,,0.00,WeatherDisplay:10.37,2015-09-02 13:47:00,
2015-09-02 09:52:00,75.7,70.2,29.99,NW,315,0.0,0.0,83,0.00,FEW,,0.00,WeatherDisplay:10.37,2015-09-02 13:52:00,
2015-09-02 09:57:00,75.9,70.0,29.99,NW,315,0.0,0.0,82,0.00,FEW,,0.00,WeatherDisplay:10.37,2015-09-02 13:57:00,
2015-09-02 10:02:00,76.3,70.4,29.99,NW,315,0.0,0.0,82,0.00,FEW,,0.00,WeatherDisplay:10.37,2015-09-02 14:02:00,
2015-09-02 10:07:00,76.8,70.9,29.99,NW,315,0.0,0.0,82,0.00,FEW,,0.00,WeatherDisplay:10.37,2015-09-02 14:07:00,
2015-09-02 10:12:00,77.2,70.9,29.99,NW,315,0.0,0.0,81,0.00,FEW,,0.00,WeatherDisplay:10.37,2015-09-02 14:12:00,
2015-09-02 10:17:00,77.5,70.9,29.99,NW,315,0.0,0.0,80,0.00,FEW,,0.00,WeatherDisplay:10.37,2015-09-02 14:17:00,
2015-09-02 10:22:00,78.1,71.4,29.99,WNW,292,0.0,0.0,80,0.00,FEW,,0.00,WeatherDisplay:10.37,2015-09-02 14:22:00,
2015-09-02 10:27:00,78.4,71.8,29.99,WNW,292,0.0,0.0,80,0.00,FEW,,0.00,WeatherDisplay:10.37,2015-09-02 14:27:00,
2015-09-02 10:32:00,78.6,71.2,29.99,WNW,292,0.0,0.0,78,0.00,FEW,,0.00,WeatherDisplay:10.37,2015-09-02 14:32:00,
2015-09-02 10:37:00,79.3,71.9,29.99,WNW,292,0.0,0.0,78,0.00,FEW,,0.00,WeatherDisplay:10.37,2015-09-02 14:37:00,
2015-09-02 10:42:00,79.5,72.1,29.99,WNW,292,0.0,0.0,78,0.00,FEW,,0.00,WeatherDisplay:10.37,2015-09-02 14:42:00,
2015-09-02 10:47:00,79.9,72.0,29.98,WNW,292,0.0,0.0,77,0.00,FEW,,0.00,WeatherDisplay:10.37,2015-09-02 14:47:00,
2015-09-02 10:52:00,80.4,72.5,29.98,WNW,292,0.0,0.0,77,0.00,FEW,,0.00,WeatherDisplay:10.37,2015-09-02 14:52:00,
2015-09-02 10:57:00,80.8,72.1,29.98,North,0,2.3,2.9,75,0.00,FEW,,0.00,WeatherDisplay:10.37,2015-09-02 14:57:00,
2015-09-02 11:02:00,81.1,72.1,29.98,NNW,338,0.0,0.0,74,0.00,FEW,,0.00,WeatherDisplay:10.37,2015-09-02 15:02:00,
2015-09-02 11:07:00,81.7,72.2,29.98,NW,315,0.0,0.0,73,0.00,FEW,,0.00,WeatherDisplay:10.37,2015-09-02 15:07:00,
2015-09-02 11:12:00,82.2,72.7,29.98,NW,315,0.0,0.0,73,0.00,FEW,,0.00,WeatherDisplay:10.37,2015-09-02 15:12:00,
2015-09-02 11:17:00,82.6,72.2,29.97,NW,315,4.0,8.1,71,0.00,FEW,,0.00,WeatherDisplay:10.37,2015-09-02 15:17:00,
2015-09-02 11:22:00,82.9,72.1,29.97,North,0,0.7,2.2,70,0.00,FEW,,0.00,WeatherDisplay:10.37,2015-09-02 15:22:00,
2015-09-02 11:27:00,83.1,71.9,29.98,West,270,2.6,6.9,69,0.00,FEW,,0.00,WeatherDisplay:10.37,2015-09-02 15:27:00,
2015-09-02 11:32:00,83.1,71.5,29.98,NW,315,0.8,2.3,68,0.00,FEW,,0.00,WeatherDisplay:10.37,2015-09-02 15:32:00,
2015-09-02 11:37:00,83.1,71.5,29.97,NW,315,0.0,0.0,68,0.00,FEW,,0.00,WeatherDisplay:10.37,2015-09-02 15:37:00,
2015-09-02 11:42:00,82.9,71.3,29.97,SW,225,0.1,0.0,68,0.00,FEW,,0.00,WeatherDisplay:10.37,2015-09-02 15:42:00,
2015-09-02 11:47:00,83.1,71.5,29.97,WSW,248,0.0,0.0,68,0.00,FEW,,0.00,WeatherDisplay:10.37,2015-09-02 15:47:00,
2015-09-02 11:52:00,83.5,70.5,29.97,West,270,0.0,0.0,65,0.00,FEW,,0.00,WeatherDisplay:10.37,2015-09-02 15:52:00,
2015-09-02 11:57:00,84.6,71.5,29.97,NW,316,1.5,2.3,65,0.00,FEW,,0.00,WeatherDisplay:10.37,2015-09-02 15:57:00,
2015-09-02 12:02:00,85.8,71.3,29.97,NW,315,0.0,0.0,62,0.00,FEW,,0.00,WeatherDisplay:10.37,2015-09-02 16:02:00,
2015-09-02 12:07:00,86.5,71.0,29.96,WSW,248,0.0,0.0,60,0.00,FEW,,0.00,WeatherDisplay:10.37,2015-09-02 16:07:00,
2015-09-02 12:12:00,86.9,71.8,29.96,West,270,0.0,0.0,61,0.00,FEW,,0.00,WeatherDisplay:10.37,2015-09-02 16:12:00,
2015-09-02 12:17:00,86.9,71.3,29.96,NW,315,0.4,1.1,60,0.00,FEW,,0.00,WeatherDisplay:10.37,2015-09-02 16:17:00,
2015-09-02 12:22:00,86.9,71.3,29.96,WNW,292,0.0,0.0,60,0.00,FEW,,0.00,WeatherDisplay:10.37,2015-09-02 16:22:00,
2015-09-02 12:27:00,86.9,71.3,29.96,WSW,248,2.3,5.8,60,0.00,FEW,,0.00,WeatherDisplay:10.37,2015-09-02 16:27:00,
2015-09-02 12:32:00,87.1,71.0,29.96,West,270,4.2,6.9,59,0.00,FEW,,0.00,WeatherDisplay:10.37,2015-09-02 16:32:00,
2015-09-02 12:37:00,87.4,71.3,29.95,WNW,292,0.4,1.1,59,0.00,FEW,,0.00,WeatherDisplay:10.37,2015-09-02 16:37:00,
2015-09-02 12:42:00,87.4,70.8,29.95,WSW,248,2.0,6.9,58,0.00,BKN,,0.00,WeatherDisplay:10.37,2015-09-02 16:42:00,
2015-09-02 12:47:00,87.6,71.0,29.95,SW,225,2.7,4.6,58,0.00,BKN,,0.00,WeatherDisplay:10.37,2015-09-02 16:47:00,
2015-09-02 12:52:00,87.8,70.7,29.95,WSW,248,0.0,0.0,57,0.00,BKN,,0.00,WeatherDisplay:10.37,2015-09-02 16:52:00,
2015-09-02 12:57:00,88.2,71.0,29.95,SW,225,2.1,5.8,57,0.00,BKN,,0.00,WeatherDisplay:10.37,2015-09-02 16:57:00,
2015-09-02 13:02:00,88.5,70.8,29.94,West,270,0.0,0.0,56,0.00,BKN,,0.00,WeatherDisplay:10.37,2015-09-02 17:02:00,
2015-09-02 13:07:00,89.1,70.8,29.94,WSW,248,0.0,0.0,55,0.00,BKN,,0.00,WeatherDisplay:10.37,2015-09-02 17:07:00,
2015-09-02 13:12:00,89.8,70.9,29.94,West,270,2.3,3.5,54,0.00,BKN,,0.00,WeatherDisplay:10.37,2015-09-02 17:12:00,
2015-09-02 13:17:00,90.1,70.7,29.94,WSW,248,2.9,5.8,53,0.00,BKN,,0.00,WeatherDisplay:10.37,2015-09-02 17:17:00,
2015-09-02 13:22:00,90.3,70.9,29.94,WNW,292,1.6,5.8,53,0.00,BKN,,0.00,WeatherDisplay:10.37,2015-09-02 17:22:00,
2015-09-02 13:27:00,90.3,71.4,29.94,NW,315,2.8,5.8,54,0.00,BKN,,0.00,WeatherDisplay:10.37,2015-09-02 17:27:00,
2015-09-02 13:32:00,89.8,70.4,29.94,WNW,292,1.1,6.9,53,0.00,BKN,,0.00,WeatherDisplay:10.37,2015-09-02 17:32:00,
2015-09-02 13:37:00,89.6,70.2,29.94,WNW,292,0.0,0.0,53,0.00,BKN,,0.00,WeatherDisplay:10.37,2015-09-02 17:37:00,
2015-09-02 13:42:00,89.6,70.8,29.93,West,270,0.0,0.0,54,0.00,BKN,,0.00,WeatherDisplay:10.37,2015-09-02 17:42:00,
2015-09-02 13:47:00,89.4,70.0,29.93,West,270,0.1,1.6,53,0.00,BKN,,0.00,WeatherDisplay:10.37,2015-09-02 17:47:00,
2015-09-02 13:52:00,89.4,70.0,29.93,WNW,292,0.0,0.0,53,0.00,BKN,,0.00,WeatherDisplay:10.37,2015-09-02 17:52:00,
2015-09-02 13:57:00,89.4,69.5,29.93,NW,315,1.5,3.6,52,0.00,BKN,,0.00,WeatherDisplay:10.37,2015-09-02 17:57:00,
2015-09-02 14:02:00,89.8,69.2,29.93,West,270,0.1,1.1,51,0.00,BKN,,0.00,WeatherDisplay:10.37,2015-09-02 18:02:00,
2015-09-02 14:07:00,90.0,69.4,29.94,West,270,0.0,0.0,51,0.00,BKN,,0.00,WeatherDisplay:10.37,2015-09-02 18:07:00,
2015-09-02 14:12:00,90.3,70.3,29.93,NW,315,2.1,3.5,52,0.00,BKN,,0.00,WeatherDisplay:10.37,2015-09-02 18:12:00,
2015-09-02 14:17:00,91.0,70.4,29.93,WNW,292,0.4,4.2,51,0.00,BKN,,0.00,WeatherDisplay:10.37,2015-09-02 18:17:00,
2015-09-02 14:22:00,91.2,69.4,29.93,NNW,338,1.4,4.6,49,0.00,OVC,,0.00,WeatherDisplay:10.37,2015-09-02 18:22:00,
2015-09-02 14:27:00,91.2,69.4,29.93,NNW,338,2.2,6.9,49,0.00,OVC,,0.00,WeatherDisplay:10.37,2015-09-02 18:27:00,
2015-09-02 14:32:00,91.2,70.0,29.93,West,270,0.0,0.0,50,0.00,OVC,,0.00,WeatherDisplay:10.37,2015-09-02 18:32:00,
2015-09-02 14:37:00,91.6,70.3,29.93,West,270,0.0,0.0,50,0.00,OVC,,0.00,WeatherDisplay:10.37,2015-09-02 18:37:00,
2015-09-02 14:42:00,91.6,70.3,29.93,West,270,0.5,2.3,50,0.00,OVC,,0.00,WeatherDisplay:10.37,2015-09-02 18:42:00,
2015-09-02 14:47:00,91.9,70.6,29.92,West,270,0.2,2.3,50,0.00,OVC,,0.00,WeatherDisplay:10.37,2015-09-02 18:47:00,
2015-09-02 14:52:00,91.9,70.6,29.92,NW,315,0.9,6.9,50,0.00,OVC,,0.00,WeatherDisplay:10.37,2015-09-02 18:52:00,
2015-09-02 14:57:00,91.8,70.5,29.92,NNW,338,0.8,5.4,50,0.00,OVC,,0.00,WeatherDisplay:10.37,2015-09-02 18:57:00,
2015-09-02 15:02:00,91.8,70.5,29.91,WNW,292,0.3,5.4,50,0.00,OVC,,0.00,WeatherDisplay:10.37,2015-09-02 19:02:00,
2015-09-02 15:07:00,91.6,70.3,29.91,WNW,292,0.5,3.5,50,0.00,OVC,,0.00,WeatherDisplay:10.37,2015-09-02 19:07:00,
2015-09-02 15:12:00,91.9,70.6,29.91,NW,315,0.0,0.0,50,0.00,OVC,,0.00,WeatherDisplay:10.37,2015-09-02 19:12:00,
2015-09-02 15:17:00,92.7,71.3,29.91,West,270,2.4,3.5,50,0.00,OVC,,0.00,WeatherDisplay:10.37,2015-09-02 19:17:00,
2015-09-02 15:22:00,93.4,71.4,29.91,West,270,0.5,3.5,49,0.00,OVC,,0.00,WeatherDisplay:10.37,2015-09-02 19:22:00,
2015-09-02 15:27:00,94.1,71.4,29.91,West,270,1.4,5.8,48,0.00,OVC,,0.00,WeatherDisplay:10.37,2015-09-02 19:27:00,
2015-09-02 15:32:00,94.3,71.0,29.91,WNW,292,0.0,4.6,47,0.00,OVC,,0.00,WeatherDisplay:10.37,2015-09-02 19:32:00,
2015-09-02 15:37:00,94.6,71.3,29.91,West,270,0.6,2.3,47,0.00,OVC,,0.00,WeatherDisplay:10.37,2015-09-02 19:37:00,
2015-09-02 15:42:00,94.8,71.4,29.90,WSW,248,0.4,2.3,47,0.00,BKN,,0.00,WeatherDisplay:10.37,2015-09-02 19:42:00,
2015-09-02 15:47:00,95.2,71.1,29.90,WNW,292,0.0,1.1,46,0.00,BKN,,0.00,WeatherDisplay:10.37,2015-09-02 19:47:00,
2015-09-02 15:52:00,95.5,70.8,29.90,WSW,248,1.2,2.3,45,0.00,BKN,,0.00,WeatherDisplay:10.37,2015-09-02 19:52:00,
2015-09-02 15:57:00,95.2,70.5,29.90,NW,315,2.4,4.6,45,0.00,BKN,,0.00,WeatherDisplay:10.37,2015-09-02 19:57:00,
2015-09-02 16:02:00,95.0,69.7,29.90,West,270,3.7,3.7,44,0.00,BKN,,0.00,WeatherDisplay:10.37,2015-09-02 20:02:00,
2015-09-02 16:07:00,94.6,70.6,29.90,NW,315,1.9,6.9,46,0.00,BKN,,0.00,WeatherDisplay:10.37,2015-09-02 20:07:00,
2015-09-02 16:12:00,93.7,69.8,29.89,WNW,292,0.0,0.0,46,0.00,BKN,,0.00,WeatherDisplay:10.37,2015-09-02 20:12:00,
2015-09-02 16:17:00,93.0,69.2,29.89,NW,315,6.9,8.1,46,0.00,BKN,,0.00,WeatherDisplay:10.37,2015-09-02 20:17:00,
2015-09-02 16:22:00,92.5,68.7,29.89,West,270,4.2,5.8,46,0.00,BKN,,0.00,WeatherDisplay:10.37,2015-09-02 20:22:00,
2015-09-02 16:27:00,92.5,68.7,29.89,NW,315,0.0,2.3,46,0.00,BKN,,0.00,WeatherDisplay:10.37,2015-09-02 20:27:00,
2015-09-02 16:32:00,92.3,69.2,29.89,WNW,292,1.3,4.6,47,0.00,BKN,,0.00,WeatherDisplay:10.37,2015-09-02 20:32:00,
2015-09-02 16:37:00,92.3,69.8,29.89,West,270,0.4,1.3,48,0.00,BKN,,0.00,WeatherDisplay:10.37,2015-09-02 20:37:00,
2015-09-02 16:42:00,92.7,69.5,29.88,West,270,0.9,3.5,47,0.00,BKN,,0.00,WeatherDisplay:10.37,2015-09-02 20:42:00,
2015-09-02 16:47:00,93.0,69.8,29.88,WSW,248,1.8,4.6,47,0.00,BKN,,0.00,WeatherDisplay:10.37,2015-09-02 20:47:00,
2015-09-02 16:52:00,93.7,69.8,29.88,WSW,248,0.8,3.5,46,0.00,BKN,,0.00,WeatherDisplay:10.37,2015-09-02 20:52:00,
2015-09-02 16:57:00,93.9,70.0,29.88,NW,315,1.9,6.9,46,0.00,BKN,,0.00,WeatherDisplay:10.37,2015-09-02 20:57:00,
2015-09-02 17:02:00,94.3,70.3,29.88,West,270,1.1,3.5,46,0.00,BKN,,0.00,WeatherDisplay:10.37,2015-09-02 21:02:00,
2015-09-02 17:07:00,94.6,71.3,29.88,West,270,0.6,3.5,47,0.00,BKN,,0.00,WeatherDisplay:10.37,2015-09-02 21:07:00,
2015-09-02 17:12:00,94.8,70.8,29.88,SW,225,4.9,9.2,46,0.00,BKN,,0.00,WeatherDisplay:10.37,2015-09-02 21:12:00,
2015-09-02 17:17:00,95.0,71.0,29.87,NNW,338,2.9,5.8,46,0.00,BKN,,0.00,WeatherDisplay:10.37,2015-09-02 21:17:00,
2015-09-02 17:22:00,94.8,70.8,29.87,NW,315,0.5,4.6,46,0.00,BKN,,0.00,WeatherDisplay:10.37,2015-09-02 21:22:00,
2015-09-02 17:27:00,94.6,70.0,29.86,NW,315,1.9,3.5,45,0.00,BKN,,0.00,WeatherDisplay:10.37,2015-09-02 21:27:00,
2015-09-02 17:32:00,94.6,70.6,29.87,West,270,1.0,3.5,46,0.00,BKN,,0.00,WeatherDisplay:10.37,2015-09-02 21:32:00,
2015-09-02 17:37:00,94.5,70.5,29.87,NW,315,0.9,3.5,46,0.00,BKN,,0.00,WeatherDisplay:10.37,2015-09-02 21:37:00,
2015-09-02 17:42:00,94.3,70.3,29.87,WNW,292,1.9,4.6,46,0.00,BKN,,0.00,WeatherDisplay:10.37,2015-09-02 21:42:00,
2015-09-02 17:47:00,94.3,70.3,29.87,WNW,292,1.2,4.6,46,0.00,BKN,,0.00,WeatherDisplay:10.37,2015-09-02 21:47:00,
2015-09-02 17:52:00,93.9,70.0,29.87,WNW,292,1.4,2.3,46,0.00,BKN,,0.00,WeatherDisplay:10.37,2015-09-02 21:52:00,
2015-09-02 17:57:00,93.4,69.5,29.87,West,270,0.0,0.0,46,0.00,BKN,,0.00,WeatherDisplay:10.37,2015-09-02 21:57:00,
2015-09-02 18:02:00,92.8,69.6,29.87,NW,315,3.2,9.2,47,0.00,BKN,,0.00,WeatherDisplay:10.37,2015-09-02 22:02:00,
2015-09-02 18:07:00,92.3,69.8,29.87,West,270,0.8,4.5,48,0.00,BKN,,0.00,WeatherDisplay:10.37,2015-09-02 22:07:00,
2015-09-02 18:12:00,91.9,70.0,29.87,West,270,0.0,0.0,49,0.00,BKN,,0.00,WeatherDisplay:10.37,2015-09-02 22:12:00,
2015-09-02 18:17:00,91.9,70.6,29.87,West,270,1.1,1.1,50,0.00,BKN,,0.00,WeatherDisplay:10.37,2015-09-02 22:17:00,
2015-09-02 18:22:00,92.1,70.2,29.86,WSW,248,4.3,5.8,49,0.00,BKN,,0.00,WeatherDisplay:10.37,2015-09-02 22:22:00,
2015-09-02 18:27:00,92.3,70.4,29.86,West,270,0.0,0.0,49,0.00,BKN,,0.00,WeatherDisplay:10.37,2015-09-02 22:27:00,
2015-09-02 18:32:00,92.3,70.4,29.86,WNW,292,2.6,5.8,49,0.00,BKN,,0.00,WeatherDisplay:10.37,2015-09-02 22:32:00,
2015-09-02 18:37:00,92.3,70.4,29.86,NW,315,0.0,0.0,49,0.00,BKN,,0.00,WeatherDisplay:10.37,2015-09-02 22:37:00,
2015-09-02 18:42:00,91.9,69.4,29.86,WSW,248,0.4,2.3,48,0.00,BKN,,0.00,WeatherDisplay:10.37,2015-09-02 22:42:00,
2015-09-02 18:47:00,91.8,69.9,29.87,West,270,1.3,3.5,49,0.00,BKN,,0.00,WeatherDisplay:10.37,2015-09-02 22:47:00,
2015-09-02 18:52:00,91.6,69.7,29.86,WSW,248,2.2,2.3,49,0.00,BKN,,0.00,WeatherDisplay:10.37,2015-09-02 22:52:00,
2015-09-02 18:57:00,91.0,69.2,29.86,WNW,292,1.4,3.5,49,0.00,BKN,,0.00,WeatherDisplay:10.37,2015-09-02 22:57:00,
2015-09-02 19:02:00,90.3,69.2,29.86,West,270,1.1,3.5,50,0.00,BKN,,0.00,WeatherDisplay:10.37,2015-09-02 23:02:00,
2015-09-02 19:07:00,89.8,68.7,29.86,NW,315,1.1,3.5,50,0.00,BKN,,0.00,WeatherDisplay:10.37,2015-09-02 23:07:00,
2015-09-02 19:12:00,89.2,68.7,29.87,West,270,2.8,9.2,51,0.00,BKN,,0.00,WeatherDisplay:10.37,2015-09-02 23:12:00,
2015-09-02 19:17:00,88.3,67.9,29.86,NW,315,2.4,6.9,51,0.00,BKN,,0.00,WeatherDisplay:10.37,2015-09-02 23:17:00,
2015-09-02 19:22:00,87.8,68.0,29.86,West,270,0.0,0.0,52,0.00,BKN,,0.00,WeatherDisplay:10.37,2015-09-02 23:22:00,
2015-09-02 19:27:00,87.4,68.2,29.86,WNW,292,0.1,2.3,53,0.00,BKN,,0.00,WeatherDisplay:10.37,2015-09-02 23:27:00,
2015-09-02 19:32:00,87.3,68.6,29.86,NW,315,0.5,2.3,54,0.00,BKN,,0.00,WeatherDisplay:10.37,2015-09-02 23:32:00,
2015-09-02 19:37:00,87.4,68.8,29.87,NW,315,1.1,2.3,54,0.00,BKN,,0.00,WeatherDisplay:10.37,2015-09-02 23:37:00,
2015-09-02 19:42:00,87.8,68.5,29.86,WNW,292,0.0,0.0,53,0.00,BKN,,0.00,WeatherDisplay:10.37,2015-09-02 23:42:00,
2015-09-02 19:47:00,88.0,69.3,29.86,WNW,292,0.0,0.0,54,0.00,BKN,,0.00,WeatherDisplay:10.37,2015-09-02 23:47:00,
2015-09-02 19:52:00,88.0,69.3,29.87,WNW,292,0.1,0.7,54,0.00,BKN,,0.00,WeatherDisplay:10.37,2015-09-02 23:52:00,
2015-09-02 19:57:00,87.6,68.9,29.87,WNW,292,0.0,0.0,54,0.00,BKN,,0.00,WeatherDisplay:10.37,2015-09-02 23:57:00,
2015-09-02 20:02:00,87.1,68.4,29.87,NW,315,0.1,1.1,54,0.00,BKN,,0.00,WeatherDisplay:10.37,2015-09-03 00:02:00,
2015-09-02 20:07:00,86.5,68.5,29.87,NW,315,0.0,0.0,55,0.00,BKN,,0.00,WeatherDisplay:10.37,2015-09-03 00:07:00,
2015-09-02 20:12:00,86.0,68.0,29.88,WNW,292,0.9,5.1,55,0.00,BKN,,0.00,WeatherDisplay:10.37,2015-09-03 00:12:00,
2015-09-02 20:17:00,85.6,68.1,29.88,WNW,292,0.2,0.0,56,0.00,BKN,,0.00,WeatherDisplay:10.37,2015-09-03 00:17:00,
2015-09-02 20:22:00,85.3,68.3,29.88,NNW,338,1.2,4.6,57,0.00,BKN,,0.00,WeatherDisplay:10.37,2015-09-03 00:22:00,
2015-09-02 20:27:00,84.9,68.0,29.88,NW,315,0.0,2.3,57,0.00,BKN,,0.00,WeatherDisplay:10.37,2015-09-03 00:27:00,
2015-09-02 20:32:00,84.7,68.3,29.88,NNW,338,0.0,0.0,58,0.00,BKN,,0.00,WeatherDisplay:10.37,2015-09-03 00:32:00,
2015-09-02 20:37:00,84.6,68.2,29.88,NNW,338,1.4,1.4,58,0.00,BKN,,0.00,WeatherDisplay:10.37,2015-09-03 00:37:00,
2015-09-02 20:42:00,84.4,68.5,29.89,NNW,338,0.0,0.0,59,0.00,BKN,,0.00,WeatherDisplay:10.37,2015-09-03 00:42:00,
2015-09-02 20:47:00,84.0,68.1,29.89,NNW,338,0.0,0.0,59,0.00,BKN,,0.00,WeatherDisplay:10.37,2015-09-03 00:47:00,
2015-09-02 20:52:00,83.8,68.5,29.89,NNW,338,0.0,0.0,60,0.00,BKN,,0.00,WeatherDisplay:10.37,2015-09-03 00:52:00,
2015-09-02 20:57:00,83.8,69.4,29.89,NNW,338,0.0,0.0,62,0.00,BKN,,0.00,WeatherDisplay:10.37,2015-09-03 00:57:00,
2015-09-02 21:02:00,84.0,69.1,29.90,NNW,338,0.0,0.0,61,0.00,BKN,,0.00,WeatherDisplay:10.37,2015-09-03 01:02:00,
2015-09-02 21:07:00,84.7,69.8,29.90,NNW,338,0.0,0.0,61,0.00,BKN,,0.00,WeatherDisplay:10.37,2015-09-03 01:07:00,
2015-09-02 21:12:00,84.9,70.0,29.90,NNW,338,0.0,0.0,61,0.00,BKN,,0.00,WeatherDisplay:10.37,2015-09-03 01:12:00,
2015-09-02 21:17:00,84.9,69.5,29.90,NNW,338,0.0,0.0,60,0.00,BKN,,0.00,WeatherDisplay:10.37,2015-09-03 01:17:00,
2015-09-02 21:22:00,84.7,69.3,29.90,NNW,338,0.0,0.0,60,0.00,BKN,,0.00,WeatherDisplay:10.37,2015-09-03 01:22:00,
2015-09-02 21:27:00,84.0,68.6,29.90,NNW,338,0.0,0.0,60,0.00,BKN,,0.00,WeatherDisplay:10.37,2015-09-03 01:27:00,
2015-09-02 21:32:00,83.5,68.6,29.90,NNW,338,0.0,0.0,61,0.00,BKN,,0.00,WeatherDisplay:10.37,2015-09-03 01:32:00,
2015-09-02 21:37:00,83.1,68.7,29.90,NNW,338,0.0,0.0,62,0.00,BKN,,0.00,WeatherDisplay:10.37,2015-09-03 01:37:00,
2015-09-02 21:42:00,82.8,68.4,29.90,NNW,338,0.0,0.0,62,0.00,BKN,,0.00,WeatherDisplay:10.37,2015-09-03 01:42:00,
2015-09-02 21:47:00,82.2,68.4,29.90,NNW,338,0.0,0.0,63,0.00,BKN,,0.00,WeatherDisplay:10.37,2015-09-03 01:47:00,
2015-09-02 21:52:00,82.0,68.7,29.90,NNW,338,0.0,0.0,64,0.00,BKN,,0.00,WeatherDisplay:10.37,2015-09-03 01:52:00,
2015-09-02 21:57:00,81.7,68.3,29.90,NNW,338,0.0,0.0,64,0.00,BKN,,0.00,WeatherDisplay:10.37,2015-09-03 01:57:00,
2015-09-02 22:02:00,81.3,68.0,29.91,NNW,338,0.0,0.0,64,0.00,BKN,,0.00,WeatherDisplay:10.37,2015-09-03 02:02:00,
2015-09-02 22:07:00,81.1,68.7,29.91,NNW,338,0.0,0.0,66,0.00,BKN,,0.00,WeatherDisplay:10.37,2015-09-03 02:07:00,
2015-09-02 22:12:00,80.8,68.4,29.91,NNW,338,0.0,0.0,66,0.00,BKN,,0.00,WeatherDisplay:10.37,2015-09-03 02:12:00,
2015-09-02 22:17:00,80.6,68.6,29.91,NNW,338,0.0,0.0,67,0.00,BKN,,0.00,WeatherDisplay:10.37,2015-09-03 02:17:00,
2015-09-02 22:22:00,80.4,68.5,29.91,NNW,338,0.0,0.0,67,0.00,SCT,,0.00,WeatherDisplay:10.37,2015-09-03 02:22:00,
2015-09-02 22:27:00,80.2,68.7,29.91,NNW,338,0.0,0.0,68,0.00,SCT,,0.00,WeatherDisplay:10.37,2015-09-03 02:27:00,
2015-09-02 22:32:00,80.8,69.2,29.91,NNW,338,0.0,0.0,68,0.00,SCT,,0.00,WeatherDisplay:10.37,2015-09-03 02:32:00,
2015-09-02 22:37:00,81.3,69.7,29.91,NNW,338,0.0,0.0,68,0.00,SCT,,0.00,WeatherDisplay:10.37,2015-09-03 02:37:00,
2015-09-02 22:42:00,81.9,69.8,29.91,NNW,338,0.0,0.0,67,0.00,SCT,,0.00,WeatherDisplay:10.37,2015-09-03 02:42:00,
2015-09-02 22:47:00,81.9,69.4,29.91,NNW,338,0.0,0.0,66,0.00,SCT,,0.00,WeatherDisplay:10.37,2015-09-03 02:47:00,
2015-09-02 22:52:00,81.5,69.0,29.91,NNW,338,0.0,0.0,66,0.00,SCT,,0.00,WeatherDisplay:10.37,2015-09-03 02:52:00,
2015-09-02 22:57:00,81.0,69.0,29.91,NNW,338,0.0,0.0,67,0.00,SCT,,0.00,WeatherDisplay:10.37,2015-09-03 02:57:00,
2015-09-02 23:02:00,80.4,68.5,29.91,NNW,338,0.0,0.0,67,0.00,SCT,,0.00,WeatherDisplay:10.37,2015-09-03 03:02:00,
2015-09-02 23:07:00,80.1,68.5,29.91,NNW,338,0.0,0.0,68,0.00,SCT,,0.00,WeatherDisplay:10.37,2015-09-03 03:07:00,
2015-09-02 23:12:00,79.7,68.6,29.91,NNW,338,0.0,0.0,69,0.00,SCT,,0.00,WeatherDisplay:10.37,2015-09-03 03:12:00,
2015-09-02 23:17:00,79.5,68.5,29.91,NNW,338,0.0,0.0,69,0.00,SCT,,0.00,WeatherDisplay:10.37,2015-09-03 03:17:00,
2015-09-02 23:22:00,79.2,68.5,29.90,NNW,338,0.0,0.0,70,0.00,SCT,,0.00,WeatherDisplay:10.37,2015-09-03 03:22:00,
2015-09-02 23:27:00,79.0,68.4,29.90,NNW,338,0.0,0.0,70,0.00,SCT,,0.00,WeatherDisplay:10.37,2015-09-03 03:27:00,
2015-09-02 23:32:00,78.6,68.4,29.90,NNW,338,0.0,0.0,71,0.00,SCT,,0.00,WeatherDisplay:10.37,2015-09-03 03:32:00,
2015-09-02 23:37:00,78.4,68.3,29.90,NNW,338,0.0,0.0,71,0.00,SCT,,0.00,WeatherDisplay:10.37,2015-09-03 03:37:00,
2015-09-02 23:42:00,78.4,68.3,29.90,NNW,338,0.0,0.0,71,0.00,SCT,,0.00,WeatherDisplay:10.37,2015-09-03 03:42:00,
2015-09-02 23:47:00,78.1,67.9,29.90,NNW,338,0.0,0.0,71,0.00,SCT,,0.00,WeatherDisplay:10.37,2015-09-03 03:47:00,
2015-09-02 23:52:00,78.1,68.3,29.89,NNW,338,0.0,0.0,72,0.00,SCT,,0.00,WeatherDisplay:10.37,2015-09-03 03:52:00,
2015-09-02 23:57:00,77.9,68.1,29.90,NNW,338,0.0,0.0,72,0.00,SCT,,0.00,WeatherDisplay:10.37,2015-09-03 03:57:00,